Starlink 30459

operational
NORAD ID: 57927 Int'l Des: 2023-147 Owner: SPXS Country: US Constellation: starlink
LEOCIRCULAR

Über Starlink 30459

Beschreibung wird geladen...

Live-Position

3D-Globus wird geladen...

Nächste Überflüge

Höhenverlauf

Altitude vs Time

uPlot chart will show altitude changes over time

Zweizeiliger Elementsatz

1 57927U 23147Q 25353.33335648 .00154904 00000-0 68901-3 0 9990
2 57927 42.9844 237.7960 0026369 232.3679 337.2955 15.82570999 5908
Epoch: 19. Dez. 2025 • Age: 10 hours

Aktueller Status

Höhe 331.0 km
Geschwindigkeit 7.71 km/s
Subsatellitenpunkt 35.20°N, 4.2°E
Startdatum 24. Sept. 2023
Alter 2.2 years
Typ internet

Technische Details

Klassifizierung Payload
Masse 730.00 kg
Trockenmasse 700.00 kg
Gesamtmasse 730.00 kg
Länge 0.30 m
Durchmesser 4.10 m
Spannweite 29.00 m
Form Box + pan
Hersteller SPXS
Bus-Typ Starlink V2M
Phasenstatus In Orbit
Besitzer/Staat SPXS/US

Große Konstellationen

Loading constellations...